Weather History for Tamworth Airport, New South Wales

Change the Weather History Date:

Saturday, January 4, 2014

  Actual Average Record
Temperature  
Mean Temperature 80 °F -  
Max Temperature 95 °F - - ()
Min Temperature 66 °F - - ()
Cooling Degree Days 16    
Growing Degree Days 30 (Base 50)    
Moisture  
Dew Point 44 °F    
Average Humidity 31    
Maximum Humidity 90    
Minimum Humidity 9    
Precipitation  
Precipitation 0.00 in - - ()
Sea Level Pressure  
Sea Level Pressure 29.61 in    
Wind  
Wind Speed 8 mph ()    
Max Wind Speed 18 mph    
Max Gust Speed 26 mph    
Visibility 6.2 miles    
Events      
T = Trace of Precipitation, MM = Missing Value Source: Averaged Metar Reports

Daily Weather History Graph

Daily Weather History Graph

Search for Another Location

Airport:

Trip Planner

Search our weather history database for the weather conditions in past years. The results will help you decide how hot, cold, wet, or windy it might be!

Date:

Astronomy

Jan. 04, 2014 Rise Set
Actual Time 5:50 AM AEDT 8:11 PM AEDT
Civil Twilight 5:21 AM AEDT 8:40 PM AEDT
Nautical Twilight 4:46 AM AEDT 9:15 PM AEDT
Astronomical Twilight 4:07 AM AEDT 9:54 PM AEDT
Moon 8:50 AM AEDT (1/4) 10:10 PM AEDT (1/4)
Length of Visible Light 15h 18m
Length of Day
14h 20m
Waxing Crescent, 10% of the Moon is Illuminated
Jan 4
Waxing Crescent
Jan 8
First Quarter
Jan 16
Full
Jan 24
Last Quarter
Jan 31
New

Hourly Weather History & Observations

Time (AEDT) Temp. Heat Index Dew Point Humidity Pressure Visibility Wind Dir Wind Speed Gust Speed Precip Events Conditions
12:00 AM 69 °F - 67 °F 90%  in - Calm Calm - -  
12:00 AM 89.6 °F - 39.2 °F 17% 29.47 in 6.2 mi West 8.1 mph - N/A   Unknown
12:30 AM 87.8 °F - 39.2 °F 18% 29.47 in 6.2 mi WNW 8.1 mph - N/A   Unknown
1:00 AM 86.0 °F - 42.8 °F 22% 29.47 in 6.2 mi West 11.5 mph - N/A   Unknown
1:30 AM 86.0 °F - 50.0 °F 29% 29.47 in 6.2 mi West 12.7 mph - N/A   Unknown
2:00 AM 84.2 °F 83.0 °F 55.4 °F 37% 29.47 in 6.2 mi WSW 15.0 mph - N/A   Unknown
2:30 AM 82.4 °F 82.0 °F 57.2 °F 42% 29.47 in 6.2 mi WSW 13.8 mph - N/A   Unknown
3:00 AM 69 °F - 65 °F 84%  in - ESE 5.8 mph - -  
3:00 AM 82.4 °F 82.5 °F 59.0 °F 45% 29.50 in 6.2 mi WSW 10.4 mph - N/A   Unknown
3:30 AM 78.8 °F - 57.2 °F 47% 29.50 in 6.2 mi NE 4.6 mph - N/A   Unknown
4:00 AM 80.6 °F 81.1 °F 59.0 °F 48% 29.53 in 6.2 mi WNW 4.6 mph - N/A   Unknown
4:30 AM 78.8 °F - 59.0 °F 51% 29.53 in 6.2 mi NNW 4.6 mph - N/A   Unknown
5:00 AM 78.8 °F - 59.0 °F 51% 29.56 in 6.2 mi NW 4.6 mph - N/A   Unknown
5:30 AM 75.2 °F - 53.6 °F 47% 29.56 in 6.2 mi Calm Calm - N/A   Unknown
6:00 AM 67 °F - 62 °F 77%  in - SSW 10.4 mph - -  
6:00 AM 73.4 °F - 53.6 °F 50% 29.56 in 6.2 mi North 4.6 mph - N/A   Unknown
6:30 AM 75.2 °F - 57.2 °F 53% 29.59 in 6.2 mi NW 6.9 mph - N/A   Unknown
7:00 AM 77.0 °F - 57.2 °F 50% 29.59 in 6.2 mi WNW 2.3 mph - N/A   Unknown
7:30 AM 80.6 °F 80.8 °F 57.2 °F 45% 29.62 in 6.2 mi NNE 6.9 mph - N/A   Unknown
8:00 AM 84.2 °F 83.0 °F 55.4 °F 37% 29.62 in 6.2 mi WNW 6.9 mph - N/A   Unknown
8:30 AM 84.2 °F 83.0 °F 55.4 °F 37% 29.62 in 6.2 mi ENE 5.8 mph - N/A   Unknown
9:00 AM 74 °F - 58 °F 49%  in - South 6.9 mph - -  
9:00 AM 86.0 °F 84.2 °F 53.6 °F 33% 29.62 in 6.2 mi WSW 10.4 mph - N/A   Unknown
9:30 AM 86.0 °F 84.2 °F 53.6 °F 33% 29.65 in 6.2 mi WSW 10.4 mph - N/A   Unknown
10:00 AM 86.0 °F - 51.8 °F 31% 29.65 in 6.2 mi WSW 9.2 mph - N/A   Unknown
10:30 AM 87.8 °F 85.7 °F 53.6 °F 31% 29.65 in 6.2 mi NW 12.7 mph - N/A   Unknown
11:00 AM 89.6 °F - 51.8 °F 27% 29.65 in 6.2 mi NW 11.5 mph - N/A   Unknown
11:30 AM 91.4 °F - 51.8 °F 26% 29.65 in 6.2 mi NW 12.7 mph - N/A   Unknown
12:00 PM 78 °F - 58 °F 39%  in - East 15.0 mph - -  
12:00 PM 91.4 °F - 48.2 °F 23% 29.65 in 6.2 mi WNW 16.1 mph - N/A   Unknown
12:30 PM 93.2 °F - 44.6 °F 19% 29.65 in 6.2 mi West 15.0 mph - N/A   Unknown
1:00 PM 93.2 °F - 41.0 °F 16% 29.65 in 6.2 mi West 17.3 mph - N/A   Unknown
1:30 PM 91.4 °F - 37.4 °F 15% 29.65 in 6.2 mi WNW 17.3 mph - N/A   Unknown
2:00 PM 95.0 °F - 26.6 °F 9% 29.62 in 6.2 mi WNW 15.0 mph 26.5 mph N/A   Unknown
2:30 PM 95.0 °F - 26.6 °F 9% 29.62 in 6.2 mi West 15.0 mph - N/A   Unknown
3:00 PM 79 °F - 58 °F 37%  in - East 16.1 mph - -  
3:00 PM 93.2 °F - 26.6 °F 9% 29.62 in 6.2 mi WNW 18.4 mph - N/A   Unknown
3:30 PM 93.2 °F - 28.4 °F 10% 29.62 in 6.2 mi West 16.1 mph - N/A   Unknown
4:00 PM 95.0 °F - 28.4 °F 9% 29.62 in 6.2 mi West 15.0 mph - N/A   Unknown
4:30 PM 93.2 °F - 28.4 °F 10% 29.62 in 6.2 mi West 15.0 mph - N/A   Unknown
5:00 PM 95.0 °F - 30.2 °F 10% 29.62 in 6.2 mi West 13.8 mph - N/A   Unknown
5:30 PM 95.0 °F - 30.2 °F 10% 29.62 in 6.2 mi WSW 12.7 mph 25.3 mph N/A   Unknown
6:00 PM 74 °F - 58 °F 49%  in - ESE 13.8 mph - -  
6:00 PM 93.2 °F - 28.4 °F 10% 29.62 in 6.2 mi SSW 10.4 mph - N/A   Unknown
6:30 PM 93.2 °F - 28.4 °F 10% 29.65 in 6.2 mi WSW 15.0 mph - N/A   Unknown
7:00 PM 91.4 °F - 24.8 °F 9% 29.65 in 6.2 mi WSW 15.0 mph - N/A   Unknown
7:30 PM 87.8 °F - 23.0 °F 9% 29.68 in 6.2 mi SW 12.7 mph - N/A   Unknown
8:00 PM 84.2 °F - 23.0 °F 11% 29.68 in 6.2 mi WSW 12.7 mph - N/A   Unknown
8:30 PM 78.8 °F - 24.8 °F 14% 29.71 in 6.2 mi SW 9.2 mph - N/A   Unknown
9:00 PM 68 °F - 59 °F 66%  in - SE 6.9 mph - -  
9:00 PM 77.0 °F - 26.6 °F 16% 29.71 in 6.2 mi SW 10.4 mph - N/A   Unknown
9:30 PM 71.6 °F - 28.4 °F 20% 29.71 in 6.2 mi WSW 6.9 mph - N/A   Unknown
10:00 PM 71.6 °F - 28.4 °F 20% 29.74 in 6.2 mi WSW 8.1 mph - N/A   Unknown
10:30 PM 71.6 °F - 30.2 °F 22% 29.74 in 6.2 mi East 4.6 mph - N/A   Unknown
11:00 PM 71.6 °F - 30.2 °F 22% 29.74 in 6.2 mi Calm Calm - N/A   Unknown
11:30 PM 69.8 °F - 30.2 °F 23% 29.74 in 6.2 mi ENE 3.5 mph - N/A   Unknown